Overview Statistics Trail Chart Weather Telemetry Raw packets
 

This is the latest recevied weather packets stored in our database for station/object EA4CZ-7. If no packets are shown the sender has not sent any weather packets the latest 10 day(s).

<< 2 3 4 5 6 >>
Time Temp. Humidity Pressure Rain* Wind** Luminosity Snow
1788190089 32.78° C 21% 1007.8 hPa - - - -
1788189489 32.78° C 21% 1007.8 hPa - - - -
1788189189 33.33° C 21% 1007.9 hPa - - - -
1788188588 33.33° C 21% 1007.9 hPa - - - -
1788186488 35.56° C 20% 1008.2 hPa - - - -
1788185588 37.22° C 20% 1008.2 hPa - - - -
1788184688 38.89° C 19% 1008.3 hPa - - - -
1788184087 40.56° C 19% 1008.4 hPa - - - -
1788183787 41.11° C 19% 1008.5 hPa - - - -
1788183187 43.33° C 18% 1008.6 hPa - - - -
1788182885 44.44° C 17% 1008.6 hPa - - - -
1788181378 45° C 19% 1005.2 hPa - - - -
1788181078 45° C 18% 1003.4 hPa - - - -
1788180469 44.44° C 18% 1003.3 hPa - - - -
1788178959 42.22° C 20% 1010 hPa - - - -
1788178659 42.22° C 20% 1010.2 hPa - - - -
1788178058 42.22° C 20% 1010.4 hPa - - - -
1788177747 41.11° C 20% 1009.8 hPa - - - -
1788177447 40° C 20% 1009.6 hPa - - - -
1788177147 39.44° C 20% 1009.5 hPa - - - -
1788176847 38.89° C 20% 1009.7 hPa - - - -
1788176546 38.89° C 20% 1009.6 hPa - - - -
1788176246 38.33° C 20% 1009.7 hPa - - - -
1788174732 37.78° C 20% 1002.7 hPa - - - -
1788171409 35.56° C 21% 931.6 hPa - - - -

* Rain since midnight (hover to see other rain measurements)
** Current wind speed in m/s (hover to see current wind gust speed)